sat.trackr.live / text

‹ back to catalog

LEMUR-2-ZACHARY

NORAD 42845 · 2017-042W

PAYLOAD ACTIVE UNKNOWN

§ Identity

Operator
Country
US
Launch date
2017-07-14
Launch site
TYMSC
Launch vehicle
Mass (kg)
RCS (m²)

Purposes: earth_obs

External: N2YO · Heavens-Above · Gunter

§ Orbital elements

Epoch: 2026-09-20T00:05:51.470016Z

Period
92.34 min
Inclination
97.3529°
Eccentricity
0.0002953
Mean motion
15.59401326 rev/d
Perigee alt
387.4 km
Apogee alt
391.4 km
Semi-major
6,767.5 km
B*
7.0837e-4
RAAN
97.2503°
Arg perigee
36.0269°
Mean anomaly
324.1186°
Rev number
50,393

§ Raw data

LEMUR-2-ZACHARY1 42845U 17042W   26263.00406794  .00056126  00000+0  70837-3 0  99932 42845  97.3529  97.2503 0002953  36.0269 324.1186 15.59401326503932

JSON: /api/v1/satellites/42845 · /tle

For live sub-satellite position, see the globe view (requires WebGL).

§ Visibility from observer

Set your observer location to see the next 7 days of passes ≥ 10°. The values pass through the URL so the page stays shareable.

No JS? Fill the form by hand. The geolocation button needs JavaScript.